Weather History for KHCD - November, 2013

Change the Weather History Date:

Friday, November 1, 2013

  Actual Average Record
Temperature  
Mean Temperature 43 °F -  
Max Temperature 52 °F 50 °F 71 °F (1990)
Min Temperature 35 °F 31 °F 15 °F (1996)
Degree Days  
Heating Degree Days 22    
Moisture  
Dew Point 38 °F    
Average Humidity 84    
Maximum Humidity 99    
Minimum Humidity 63    
Precipitation  
Precipitation 0.00 in - - ()
Sea Level Pressure  
Sea Level Pressure 29.65 in    
Wind  
Wind Speed 10 mph (WNW)    
Max Wind Speed 14 mph    
Max Gust Speed 21 mph    
Visibility 9 miles    
Events Rain    
Averages and records for this station are not official NWS values.
T = Trace of Precipitation, MM = Missing Value Source: NWS Daily Summary

Daily Weather History Graph

Daily Weather History Graph

Search for Another Location

Airport or City:

Trip Planner

Search our weather history database for the weather conditions in past years. The results will help you decide how hot, cold, wet, or windy it might be!

Date:

Astronomy

Nov. 01, 2013 Rise Set
Actual Time 7:56 AM CDT 6:05 PM CDT
Civil Twilight 7:25 AM CDT 6:36 PM CDT
Nautical Twilight 6:50 AM CDT 7:10 PM CDT
Astronomical Twilight 6:16 AM CDT 7:44 PM CDT
Moon 5:44 AM CDT (11/1) 5:02 PM CDT (11/1)
Length of Visible Light 11h 10m
Length of Day
10h 09m
Waning Crescent, 4% of the Moon is Illuminated
Nov 1
Waning Crescent
Nov 3
New
Nov 9
First Quarter
Nov 17
Full
Nov 25
Last Quarter

Hourly Weather History & Observations

Time (CDT) Temp. Windchill Dew Point Humidity Pressure Visibility Wind Dir Wind Speed Gust Speed Precip Events Conditions
12:13 AM 41.0 °F 35.2 °F 39.4 °F 94% 29.45 in 7.0 mi WNW 9.2 mph - N/A   Overcast
12:33 AM 41.0 °F 35.8 °F 39.4 °F 94% 29.45 in 5.0 mi WNW 8.1 mph - N/A   Overcast
12:53 AM 41.0 °F 35.2 °F 39.6 °F 95% 29.45 in 5.0 mi WNW 9.2 mph - N/A   Overcast
1:14 AM 41.0 °F 36.4 °F 39.6 °F 95% 29.46 in 5.0 mi WNW 6.9 mph - N/A Rain Light Rain
1:33 AM 41.0 °F 35.8 °F 39.6 °F 95% 29.47 in 5.0 mi WNW 8.1 mph - N/A Rain Light Rain
1:53 AM 40.6 °F 34.3 °F 39.4 °F 95% 29.47 in 5.0 mi WNW 10.4 mph - N/A   Overcast
2:13 AM 40.8 °F 34.5 °F 39.2 °F 94% 29.48 in 7.0 mi WNW 10.4 mph - N/A   Overcast
2:33 AM 40.6 °F 34.3 °F 39.2 °F 95% 29.48 in 7.0 mi WNW 10.4 mph - N/A   Overcast
2:54 AM 40.1 °F 34.7 °F 38.7 °F 95% 29.49 in 7.0 mi WNW 8.1 mph - N/A   Overcast
3:13 AM 39.7 °F 34.9 °F 38.5 °F 95% 29.50 in 7.0 mi West 6.9 mph - N/A   Overcast
3:34 AM 38.5 °F 34.1 °F 37.4 °F 96% 29.50 in 7.0 mi West 5.8 mph - N/A   Scattered Clouds
3:53 AM 37.9 °F 35.5 °F 37.0 °F 97% 29.50 in 7.0 mi West 3.5 mph - N/A   Clear
4:13 AM 37.9 °F 32.1 °F 37.6 °F 99% 29.50 in 7.0 mi West 8.1 mph - N/A   Scattered Clouds
4:34 AM 39.4 °F 33.2 °F 37.9 °F 95% 29.51 in 7.0 mi West 9.2 mph - N/A   Mostly Cloudy
4:53 AM 39.2 °F 33.0 °F 37.8 °F 95% 29.52 in 7.0 mi West 9.2 mph - N/A   Overcast
5:13 AM 39.2 °F 31.6 °F 37.8 °F 95% 29.52 in 7.0 mi West 12.7 mph - N/A   Overcast
5:33 AM 39.2 °F 32.0 °F 37.6 °F 94% 29.53 in 7.0 mi West 11.5 mph - N/A   Overcast
5:53 AM 38.8 °F 31.6 °F 37.4 °F 95% 29.54 in 7.0 mi West 11.5 mph - N/A   Mostly Cloudy
6:14 AM 38.5 °F 31.6 °F 37.0 °F 95% 29.55 in 7.0 mi West 10.4 mph - N/A   Mostly Cloudy
6:33 AM 37.8 °F 30.7 °F 36.5 °F 95% 29.55 in 7.0 mi West 10.4 mph - N/A   Scattered Clouds
6:53 AM 37.2 °F 30.0 °F 36.0 °F 95% 29.56 in 7.0 mi West 10.4 mph - N/A   Clear
7:14 AM 36.7 °F 28.9 °F 35.6 °F 96% 29.56 in 7.0 mi West 11.5 mph - N/A   Clear
7:33 AM 36.0 °F 28.5 °F 35.1 °F 97% 29.57 in 7.0 mi West 10.4 mph - N/A   Clear
7:53 AM 35.8 °F 28.8 °F 34.9 °F 97% 29.57 in 7.0 mi West 9.2 mph - N/A   Clear
8:13 AM 35.8 °F 28.3 °F 34.9 °F 97% 29.58 in 5.0 mi West 10.4 mph - N/A   Clear
8:33 AM 35.6 °F 27.5 °F 34.7 °F 97% 29.58 in 5.0 mi West 11.5 mph - N/A   Scattered Clouds
8:53 AM 36.3 °F 28.4 °F 35.1 °F 95% 29.59 in 7.0 mi West 11.5 mph - N/A   Clear
9:13 AM 36.9 °F 28.7 °F 34.9 °F 93% 29.60 in 10.0 mi West 12.7 mph - N/A   Clear
9:34 AM 38.3 °F 30.5 °F 35.6 °F 90% 29.61 in 10.0 mi West 12.7 mph - N/A   Clear
9:53 AM 39.9 °F 32.9 °F 36.5 °F 88% 29.61 in 10.0 mi WNW 11.5 mph - N/A   Scattered Clouds
10:14 AM 40.6 °F 34.3 °F 36.3 °F 85% 29.62 in 10.0 mi WNW 10.4 mph - N/A   Scattered Clouds
10:33 AM 41.9 °F 36.3 °F 37.0 °F 83% 29.62 in 10.0 mi West 9.2 mph - N/A   Clear
10:54 AM 43.0 °F 37.2 °F 37.0 °F 80% 29.63 in 10.0 mi WNW 10.4 mph - N/A   Clear
11:13 AM 44.4 °F 39.0 °F 37.6 °F 77% 29.63 in 10.0 mi WNW 10.4 mph - N/A   Clear
11:34 AM 45.7 °F 41.5 °F 38.3 °F 75% 29.63 in 10.0 mi West 8.1 mph - N/A   Scattered Clouds
11:53 AM 46.6 °F - 37.6 °F 71% 29.64 in 10.0 mi WNW 11.5 mph - N/A   Scattered Clouds
12:13 PM 47.3 °F - 37.9 °F 70% 29.64 in 10.0 mi NW 9.2 mph - N/A   Clear
12:34 PM 48.6 °F - 37.9 °F 67% 29.64 in 10.0 mi WNW 11.5 mph - N/A   Clear
12:53 PM 49.8 °F - 39.0 °F 66% 29.64 in 10.0 mi West 10.4 mph - N/A   Clear
1:13 PM 49.6 °F - 38.3 °F 65% 29.64 in 10.0 mi West 12.7 mph 19.6 mph N/A   Clear
1:34 PM 50.7 °F - 39.0 °F 64% 29.65 in 10.0 mi WNW 12.7 mph - N/A   Mostly Cloudy
1:53 PM 50.9 °F - 39.4 °F 65% 29.65 in 10.0 mi WNW 11.5 mph 17.3 mph N/A   Mostly Cloudy
2:13 PM 51.3 °F - 39.9 °F 65% 29.65 in 10.0 mi WNW 12.7 mph 17.3 mph N/A   Mostly Cloudy
2:33 PM 51.3 °F - 39.2 °F 63% 29.65 in 10.0 mi West 13.8 mph - N/A   Mostly Cloudy
2:53 PM 50.0 °F - 39.2 °F 66% 29.66 in 10.0 mi West 13.8 mph - N/A   Overcast
3:13 PM 49.8 °F - 38.5 °F 65% 29.67 in 10.0 mi WNW 13.8 mph 19.6 mph N/A   Overcast
3:33 PM 49.1 °F - 38.7 °F 67% 29.68 in 10.0 mi WNW 13.8 mph - N/A   Mostly Cloudy
3:53 PM 48.6 °F - 38.3 °F 68% 29.69 in 10.0 mi WNW 13.8 mph 20.7 mph N/A   Mostly Cloudy
4:14 PM 48.7 °F - 38.5 °F 68% 29.70 in 10.0 mi WNW 12.7 mph - N/A   Mostly Cloudy
4:33 PM 48.7 °F - 38.7 °F 68% 29.70 in 10.0 mi WNW 13.8 mph 19.6 mph N/A   Scattered Clouds
4:53 PM 49.3 °F - 38.1 °F 65% 29.71 in 10.0 mi WNW 13.8 mph 18.4 mph N/A   Mostly Cloudy
5:14 PM 48.0 °F - 38.3 °F 69% 29.72 in 10.0 mi WNW 10.4 mph - N/A   Mostly Cloudy
5:33 PM 47.3 °F - 38.7 °F 72% 29.73 in 10.0 mi WNW 10.4 mph - N/A   Mostly Cloudy
5:54 PM 46.6 °F - 39.0 °F 75% 29.73 in 10.0 mi West 9.2 mph - N/A   Overcast
6:13 PM 46.6 °F - 38.3 °F 73% 29.75 in 10.0 mi NW 10.4 mph - N/A   Overcast
6:33 PM 45.9 °F 41.2 °F 36.7 °F 70% 29.76 in 10.0 mi NW 9.2 mph - N/A   Overcast
6:53 PM 45.5 °F 40.3 °F 37.2 °F 73% 29.77 in 10.0 mi NW 10.4 mph - N/A   Overcast
7:13 PM 44.8 °F 39.4 °F 37.4 °F 75% 29.79 in 10.0 mi NW 10.4 mph - N/A   Overcast
7:33 PM 43.5 °F 38.3 °F 37.4 °F 79% 29.79 in 10.0 mi NW 9.2 mph - N/A   Overcast
7:53 PM 42.6 °F 37.8 °F 37.0 °F 81% 29.81 in 10.0 mi NW 8.1 mph - N/A   Mostly Cloudy
8:14 PM 41.9 °F 37.5 °F 37.0 °F 83% 29.82 in 10.0 mi NW 6.9 mph - N/A   Mostly Cloudy
8:33 PM 42.4 °F 36.5 °F 37.4 °F 82% 29.83 in 10.0 mi NW 10.4 mph - N/A   Overcast
8:53 PM 41.9 °F 36.9 °F 37.2 °F 83% 29.83 in 10.0 mi NW 8.1 mph - N/A   Overcast
9:14 PM 41.9 °F 35.4 °F 37.0 °F 83% 29.84 in 10.0 mi NW 11.5 mph - N/A   Overcast
9:33 PM 41.9 °F 36.3 °F 37.0 °F 83% 29.84 in 10.0 mi NNW 9.2 mph - N/A   Overcast
9:53 PM 39.9 °F 34.5 °F 36.5 °F 88% 29.85 in 10.0 mi NW 8.1 mph - N/A   Scattered Clouds
10:14 PM 39.6 °F 34.7 °F 36.5 °F 89% 29.86 in 10.0 mi NW 6.9 mph - N/A   Mostly Cloudy
10:33 PM 39.2 °F 34.2 °F 36.5 °F 90% 29.87 in 10.0 mi WNW 6.9 mph - N/A   Overcast
10:54 PM 39.4 °F 34.5 °F 36.5 °F 89% 29.87 in 10.0 mi WNW 6.9 mph - N/A   Overcast
11:13 PM 38.3 °F 33.9 °F 36.0 °F 91% 29.88 in 10.0 mi West 5.8 mph - N/A   Overcast
11:34 PM 36.7 °F 32.9 °F 35.1 °F 94% 29.88 in 10.0 mi West 4.6 mph - N/A   Mostly Cloudy
11:53 PM 37.8 °F 34.2 °F 36.3 °F 95% 29.88 in 10.0 mi West 4.6 mph - N/A   Mostly Cloudy